ECMWFFLT1_700_spd_021.txt.gz
Wind_Speed
18 19 20 20 22 25 25 22 22 23 23 22 21 22 22 21 20 20 19 18 18 19 19 19 19 18 18 16 15 12 11 9 8 9 9 10 11 12 15 17 18 20 22 24 26 27 28 29 29 25 21 18 16 15 14 13 13 13 13 14 14 14 14
21 19 19 19 19 22 22 21 21 22 23 22 19 20 20 20 20 21 21 20 19 20 20 21 21 20 20 19 17 15 13 12 12 11 12 12 12 13 15 17 18 20 21 23 26 28 28 29 29 26 22 19 17 15 14 13 12 12 12 13 13 14 14
25 21 20 19 18 19 20 20 20 19 21 21 19 18 18 18 18 18 19 20 21 21 22 22 22 23 23 22 21 19 16 15 15 14 15 15 15 15 16 17 18 19 20 22 26 28 28 29 29 27 23 20 18 16 14 13 12 12 11 12 13 13 13
27 24 21 19 18 18 18 20 18 16 17 17 16 15 15 16 15 15 16 17 20 22 22 22 23 24 25 24 24 22 20 19 18 18 18 17 18 18 19 19 19 19 20 22 25 27 28 29 29 27 23 20 18 16 15 14 12 12 12 13 13 14 13
28 25 22 20 20 19 18 19 18 17 17 15 14 14 14 15 17 17 17 17 18 20 22 22 24 25 26 26 26 26 24 22 22 22 21 21 21 21 21 21 21 20 21 22 24 26 29 29 29 27 23 20 18 16 15 14 13 12 12 12 13 14 14
28 25 22 21 20 19 17 17 18 18 17 16 15 14 14 16 18 18 19 19 19 20 22 24 25 26 27 27 28 28 27 26 26 26 25 24 24 24 24 24 23 21 21 21 23 25 28 29 29 27 23 20 18 16 15 14 13 13 12 12 13 13 14
29 25 21 20 19 18 17 16 17 18 17 17 17 16 16 17 18 19 20 21 21 22 23 25 26 26 27 29 30 30 29 29 29 29 28 28 28 27 27 26 24 22 21 21 23 24 26 28 28 25 22 19 17 16 15 15 14 14 14 14 14 15 15
27 24 19 18 17 17 17 16 16 17 17 18 19 19 19 19 19 20 22 22 22 24 25 25 26 27 29 32 33 31 30 30 31 31 31 30 30 30 29 27 25 23 21 21 22 23 25 26 25 23 20 17 16 15 15 15 15 15 15 16 17 17 16
26 23 19 16 15 15 15 15 15 15 17 18 19 19 19 20 20 19 20 21 22 24 25 26 27 29 31 35 36 32 31 32 32 32 32 32 31 31 30 28 25 23 21 21 22 23 25 24 21 19 17 15 14 13 13 13 14 15 16 16 17 18 17
25 23 20 18 16 14 14 15 15 16 17 17 16 16 17 18 17 17 18 19 21 22 24 27 30 32 33 36 36 32 30 33 34 33 33 32 32 31 29 27 25 23 21 21 22 24 24 22 18 16 14 13 13 12 12 13 14 15 16 18 19 19 19
23 23 22 21 18 15 15 16 15 14 14 12 11 12 13 14 14 15 16 17 18 19 22 27 31 31 33 37 37 32 30 32 35 35 34 33 32 31 29 26 24 22 20 20 23 25 23 19 16 14 14 13 13 13 13 14 15 16 17 19 19 19 19
21 21 23 23 20 17 16 14 12 11 9 8 8 9 11 12 13 14 15 15 16 18 22 27 29 29 33 39 39 34 30 31 34 36 36 35 33 31 28 26 24 22 22 23 25 24 19 16 15 14 14 14 14 14 14 15 16 17 18 19 19 19 19
18 18 20 20 20 19 16 13 10 9 8 7 8 9 10 11 12 13 14 14 15 19 24 27 28 28 32 40 43 37 30 29 32 36 38 37 35 31 28 26 24 22 22 22 20 17 16 15 15 14 14 15 14 14 15 16 17 18 19 20 21 21 22
18 17 18 19 21 20 17 12 8 7 7 8 9 10 11 12 13 14 14 14 17 22 25 27 29 29 32 41 46 38 31 30 31 36 40 38 35 31 28 28 25 23 21 19 16 15 15 15 14 14 14 15 15 16 16 17 18 19 20 21 22 23 24
19 17 17 18 21 21 18 12 9 8 8 10 12 12 13 14 15 15 17 18 20 22 24 26 29 28 32 43 47 36 31 34 32 35 40 38 34 32 31 30 28 26 24 19 15 16 15 14 14 13 14 15 16 18 19 20 21 22 22 22 22 23 24
18 16 16 18 19 20 19 16 13 12 12 13 15 15 16 16 16 17 19 21 22 23 24 25 26 27 30 39 44 35 32 37 33 32 39 38 35 34 31 29 28 27 23 17 15 15 14 13 14 14 15 16 17 18 20 22 22 22 22 23 23 24 25
19 16 16 18 18 19 20 19 18 17 16 16 17 17 17 17 19 21 22 22 22 23 24 25 25 26 26 34 44 39 33 35 31 28 34 37 35 33 32 31 28 22 15 12 14 15 14 14 14 14 15 16 17 18 20 21 21 21 21 23 26 27 28
17 15 16 17 18 20 21 20 18 17 15 16 17 18 19 21 23 24 24 24 24 24 26 25 25 25 26 35 46 43 33 31 28 26 33 36 34 35 36 31 22 14 10 11 13 14 15 15 15 15 16 17 17 19 21 22 22 23 24 26 28 30 29
16 17 18 18 19 21 20 19 17 16 16 18 19 21 23 25 26 26 25 25 25 25 26 25 25 27 29 36 43 39 31 30 28 27 32 36 38 39 34 25 15 9 10 11 12 15 16 16 16 16 18 19 20 22 24 24 24 24 26 28 30 31 30
17 21 21 21 22 22 20 19 18 18 20 21 22 23 25 27 28 27 26 25 26 27 26 26 27 29 30 34 36 32 30 30 28 27 30 35 39 34 25 19 14 9 9 10 12 15 17 16 17 18 19 21 23 25 26 26 27 27 28 29 30 31 30
21 23 23 24 24 22 21 20 19 19 18 18 19 21 22 24 24 23 23 23 25 27 27 27 28 28 28 30 30 27 27 29 28 28 28 29 28 21 15 15 12 7 8 10 12 15 16 17 19 20 21 23 26 28 28 28 30 31 31 31 31 31 30
25 26 26 26 24 21 20 19 18 17 15 15 15 15 17 18 18 19 19 20 23 25 26 26 27 27 27 27 27 25 25 27 29 29 24 19 18 15 13 11 7 6 8 10 13 15 17 19 20 22 23 25 27 30 31 31 32 33 33 33 33 31 29
27 26 25 24 21 20 20 19 18 17 16 15 14 13 13 14 15 17 19 20 22 24 25 26 28 28 28 28 27 24 23 25 26 22 15 13 15 15 10 6 6 8 10 12 15 17 18 19 21 23 24 26 29 31 33 34 34 35 34 34 33 30 27
25 23 21 19 18 19 19 19 18 17 17 16 14 13 12 13 15 17 18 20 22 23 25 28 29 30 32 32 28 22 19 18 15 11 11 13 15 13 9 8 9 10 13 16 17 18 19 20 23 24 25 27 29 30 33 34 34 35 35 34 32 29 27
21 19 17 16 17 18 19 18 18 17 17 17 17 16 16 17 18 19 20 21 22 23 25 28 31 34 36 33 24 14 9 8 7 9 14 16 15 14 12 11 11 13 16 18 19 21 22 23 26 26 27 29 30 31 32 31 31 33 35 34 32 29 28
18 16 15 16 17 17 18 18 18 18 18 19 20 20 20 21 21 22 22 22 24 24 23 25 30 35 35 28 16 6 7 8 11 14 17 16 15 15 14 13 14 16 18 19 20 22 23 26 28 29 29 31 31 31 31 30 30 32 33 33 31 29 29
16 16 17 17 17 16 16 17 17 18 19 21 23 24 23 24 24 24 24 24 25 24 21 21 26 31 27 18 9 8 9 11 15 18 18 16 15 15 15 14 15 16 18 20 21 23 23 25 28 29 31 34 33 30 31 31 30 31 32 31 30 30 31
17 18 17 16 16 15 16 18 19 20 23 25 27 26 26 27 27 27 25 24 25 24 20 18 23 26 20 12 11 11 11 16 21 21 18 16 16 15 14 14 16 19 21 24 24 24 24 26 28 29 31 34 32 30 32 33 31 30 30 29 29 30 32
14 14 15 15 16 17 19 21 22 25 27 27 28 28 29 30 29 27 25 24 24 24 19 16 20 23 19 16 15 15 18 22 23 20 18 17 16 14 13 16 19 22 23 25 25 25 25 27 29 29 30 31 30 29 32 33 31 29 28 28 29 31 32
12 11 12 15 17 19 22 23 25 26 27 27 28 29 31 31 28 26 24 22 23 23 18 17 20 21 19 18 18 21 25 24 20 18 17 16 15 15 16 19 22 23 24 25 25 25 26 27 29 29 30 30 29 29 32 32 29 27 28 29 30 31 31
14 14 15 18 22 25 26 27 26 26 26 27 28 30 30 29 25 22 21 21 20 18 17 19 22 21 19 19 21 24 25 21 17 16 15 15 16 17 19 21 22 22 23 23 24 25 27 28 28 28 29 29 29 30 31 29 27 27 28 29 29 30 30
23 22 23 27 30 29 29 28 27 27 27 28 29 29 28 25 22 20 20 19 15 13 15 19 22 21 18 20 23 23 20 17 15 15 16 16 16 16 18 20 20 20 21 21 23 24 26 26 27 27 28 28 28 29 28 27 27 27 28 28 29 29 28
29 29 29 30 30 29 28 28 28 28 29 29 29 28 25 22 20 19 18 15 11 13 16 18 21 20 19 23 24 20 17 17 18 19 18 16 15 16 18 18 18 18 19 20 22 23 23 25 26 26 26 27 27 27 27 26 26 26 27 27 27 27 27
31 31 30 28 27 26 26 27 27 28 29 28 27 25 22 19 19 18 14 10 10 16 18 19 21 23 25 26 25 21 20 21 22 20 16 15 16 17 17 17 16 17 18 19 21 22 23 24 25 26 26 26 26 26 26 26 26 26 26 26 26 26 26
29 28 27 26 26 26 27 28 28 28 28 26 24 22 20 18 18 16 12 10 12 18 21 22 24 26 27 27 25 22 22 22 19 15 14 15 17 16 15 15 16 17 19 20 21 23 23 24 25 25 25 26 26 26 26 25 25 25 25 25 25 25 25
25 25 26 26 27 28 28 29 29 28 27 25 23 21 19 17 16 12 9 10 16 21 23 24 26 26 26 27 25 20 17 15 13 12 14 17 17 16 15 15 16 19 21 22 22 23 24 25 26 25 25 26 26 26 25 25 25 25 25 25 25 24 24
26 27 28 28 29 30 30 29 28 27 25 23 21 19 17 15 12 8 6 10 18 24 26 27 27 25 24 23 20 16 13 13 13 13 16 18 17 16 16 17 19 22 24 24 24 24 25 26 26 26 26 26 26 25 24 24 25 25 25 25 24 24 24
29 30 31 32 32 32 32 30 27 24 21 19 17 16 14 11 9 7 8 12 18 24 29 29 27 23 20 17 14 13 14 14 14 16 17 18 17 16 16 19 22 25 26 26 25 25 25 26 25 25 25 25 25 24 24 24 24 25 24 24 24 24 24

ECMWFFLT1_700_spd_024.txt.gz
Wind_Speed
20 18 18 21 22 23 23 24 24 24 23 22 21 20 21 21 20 19 18 17 16 16 17 17 17 17 16 16 16 16 15 13 12 11 10 9 9 9 10 11 11 12 13 14 15 16 18 20 22 23 23 23 21 18 16 14 13 13 12 12 12 11 12
25 22 19 20 21 22 22 23 25 26 25 24 22 21 21 21 21 20 19 18 17 17 18 18 18 18 17 18 18 18 17 16 15 15 13 12 12 12 13 13 14 14 15 16 16 17 18 19 21 23 23 23 22 19 17 15 14 14 13 13 13 13 13
25 24 22 22 22 21 21 22 24 25 26 26 24 22 20 19 18 18 18 17 17 18 19 19 19 19 19 20 20 20 20 19 19 18 17 16 15 15 16 16 17 17 17 18 18 19 19 20 21 22 23 24 23 20 17 16 15 14 14 13 13 13 13
25 25 23 22 22 21 20 21 21 22 23 24 23 22 20 19 17 16 16 15 16 17 18 18 19 20 20 21 22 23 22 22 22 21 20 20 19 18 18 19 19 19 19 19 19 19 20 20 21 22 23 23 23 21 18 16 15 14 14 13 13 13 14
25 25 24 24 25 23 22 22 22 22 21 21 21 21 19 19 19 18 17 16 16 15 16 18 19 21 21 23 24 24 24 24 24 24 23 23 22 21 21 21 22 21 20 19 19 20 20 20 20 22 23 23 23 21 18 16 14 14 14 13 13 13 14
25 26 26 28 27 24 23 23 23 23 20 19 19 18 16 17 18 18 17 17 17 17 18 19 20 20 22 24 25 26 26 27 27 27 27 27 26 24 23 24 24 22 20 20 20 20 20 20 21 22 23 23 22 20 17 15 14 14 13 13 13 13 13
25 26 27 29 28 24 22 22 22 22 20 18 18 18 18 17 16 16 16 17 18 19 21 21 21 21 22 25 27 28 28 29 30 30 30 30 29 27 26 26 25 23 21 21 21 21 21 21 21 22 23 22 21 19 17 15 14 14 13 13 13 13 14
20 24 27 28 27 24 21 21 21 21 19 19 19 20 20 19 17 17 17 18 18 20 21 22 23 23 24 26 27 28 29 31 32 33 33 32 31 29 28 27 26 24 22 22 22 22 21 20 20 22 23 21 20 19 17 15 15 15 14 14 14 15 16
17 22 26 25 24 23 20 20 20 19 19 19 20 20 20 21 20 20 19 18 19 21 21 22 23 26 27 28 28 29 30 33 35 35 35 35 33 31 31 29 26 25 24 23 22 21 21 20 21 23 21 20 19 18 16 16 16 16 15 15 16 16 16
17 21 24 22 23 22 21 21 21 20 21 20 20 21 21 23 23 22 21 21 22 22 21 22 24 27 29 30 30 31 32 35 37 38 39 39 36 34 34 31 27 25 25 24 22 21 20 19 19 20 18 18 18 17 16 16 15 16 16 16 16 16 17
17 22 23 22 22 21 20 21 21 22 22 21 21 21 22 23 23 22 23 22 22 22 22 23 26 28 30 32 33 34 35 37 39 42 42 41 38 35 33 31 28 27 27 25 23 21 19 17 17 18 18 18 18 17 16 16 15 15 16 16 16 16 17
18 22 23 22 20 18 17 19 20 21 22 21 20 20 20 21 22 22 22 22 22 22 23 25 26 27 29 33 35 36 38 39 42 46 43 40 39 35 30 29 28 28 28 26 23 21 19 18 18 19 19 18 18 17 16 15 14 15 16 16 16 15 15
21 24 24 23 20 17 16 18 19 20 20 19 19 18 18 18 19 20 20 21 21 23 24 25 26 26 27 31 33 37 41 44 47 49 46 44 44 37 29 29 29 29 30 27 24 24 21 19 20 22 20 19 18 16 15 14 14 15 16 16 16 15 15
25 26 25 23 20 18 18 19 19 20 19 17 16 15 15 15 16 17 18 20 21 23 24 24 24 24 25 26 30 36 44 47 47 48 49 49 46 36 30 30 33 32 32 29 28 27 25 22 25 25 19 18 17 14 14 14 14 15 16 16 16 15 16
24 27 26 24 21 18 18 20 20 19 17 15 13 12 12 13 14 15 16 19 21 23 23 23 23 23 23 24 27 34 40 41 43 47 49 49 47 39 33 33 35 35 34 33 31 29 27 27 27 22 16 16 15 13 14 15 14 16 17 17 18 18 18
22 26 27 24 19 16 18 21 20 18 15 12 10 9 10 12 14 15 17 19 20 21 22 22 22 22 23 25 27 31 34 35 41 46 47 47 47 41 34 34 36 38 38 36 35 33 29 26 21 16 14 14 13 12 13 14 15 17 19 20 21 21 22
21 26 28 24 17 14 18 22 22 18 14 10 8 9 10 12 15 17 18 20 20 20 21 22 23 23 25 28 29 31 32 32 38 45 47 47 45 39 32 32 36 39 40 39 37 34 27 19 14 14 15 13 11 12 13 14 16 19 21 22 24 25 26
25 28 27 21 15 15 19 22 23 20 15 12 10 11 12 14 17 19 20 21 21 23 24 25 26 26 28 30 31 31 32 31 36 45 47 43 40 36 29 31 36 39 40 40 36 29 21 15 13 13 13 12 11 12 13 15 18 20 23 24 25 28 29
28 28 23 17 15 16 18 20 21 20 17 15 14 15 16 19 21 23 23 25 25 27 29 29 29 29 30 32 32 31 31 31 37 46 44 36 34 32 26 30 36 38 39 38 32 25 18 14 13 12 11 11 12 13 15 17 19 22 24 26 28 31 32
29 24 19 16 17 17 17 19 21 20 18 17 17 18 20 21 24 24 24 26 26 28 30 30 31 31 32 33 33 31 31 31 37 44 39 30 29 28 24 29 35 38 41 36 26 20 17 14 12 12 11 12 13 16 17 19 21 23 25 28 31 33 34
27 22 19 18 19 18 19 21 21 20 19 19 19 20 22 23 24 23 23 24 23 24 25 25 26 28 29 31 32 30 30 31 36 39 33 26 26 26 26 30 34 35 36 29 19 17 17 14 12 11 11 12 15 18 19 20 22 25 27 30 32 33 35
23 20 18 19 20 21 22 23 22 21 20 20 21 23 24 24 23 22 23 23 22 21 21 22 23 24 26 28 29 29 29 31 34 34 28 24 26 26 25 26 25 23 24 21 18 17 16 13 12 11 11 14 17 19 20 21 24 27 29 31 33 35 37
20 19 20 23 24 24 24 23 22 21 21 23 24 25 24 22 21 21 21 20 20 19 20 23 24 25 26 27 27 28 28 29 30 29 25 23 24 20 17 17 17 18 19 19 18 16 13 12 13 14 15 17 19 21 22 23 25 28 30 33 35 37 36
22 23 24 26 26 24 23 22 21 22 23 24 23 21 20 18 18 19 18 19 19 19 20 23 25 27 27 27 27 27 25 25 27 24 20 20 19 15 16 19 20 19 19 18 16 15 14 15 16 18 19 20 21 24 26 26 27 30 32 35 38 37 35
27 27 28 27 25 23 21 21 21 22 23 22 20 17 17 17 17 18 19 20 21 21 22 23 25 26 26 26 27 26 22 22 23 18 14 16 17 18 20 21 21 20 19 18 17 17 17 19 20 20 20 22 24 28 30 29 30 32 34 36 38 38 36
28 27 27 25 22 20 19 19 20 21 21 19 18 17 18 18 18 20 22 22 23 24 25 26 26 25 25 26 27 25 20 18 16 12 15 17 18 20 22 22 22 20 20 21 21 21 21 21 21 20 21 23 27 30 31 31 31 33 35 37 37 37 36
24 25 24 23 21 20 18 17 17 18 18 17 18 18 19 20 21 23 24 24 25 26 27 27 26 25 26 27 26 21 17 14 13 16 19 20 20 22 23 22 20 20 21 22 22 22 21 20 20 21 23 25 28 30 32 32 32 33 36 37 35 34 34
25 26 25 24 24 23 20 17 16 17 17 16 17 19 21 23 25 26 27 26 27 28 29 28 25 25 26 26 22 17 13 15 19 20 22 25 26 25 24 22 19 19 20 21 21 19 19 20 22 24 25 27 29 31 31 32 33 34 36 35 33 33 34
26 26 24 23 22 20 19 17 16 16 16 16 18 21 24 26 27 28 28 28 29 30 29 27 25 24 25 24 19 15 17 21 22 22 24 27 28 27 25 22 20 20 20 19 18 18 19 22 24 25 26 27 29 31 32 33 34 35 36 35 34 34 34
24 22 19 17 16 15 15 15 14 15 16 19 22 25 27 28 28 29 29 30 30 30 28 26 23 22 23 22 17 18 22 23 23 24 26 29 29 26 23 21 20 19 18 18 18 18 19 22 24 25 27 28 30 32 33 33 34 35 35 34 34 33 32
22 20 18 16 15 14 15 15 17 19 22 23 25 27 28 29 29 29 29 30 30 28 26 24 20 20 21 20 18 20 22 22 22 25 28 29 28 24 22 20 19 17 16 17 17 17 18 21 24 25 27 28 30 31 32 32 33 34 34 33 32 31 31
23 22 19 16 14 13 15 18 21 24 26 27 29 29 29 29 28 28 29 29 29 26 24 21 18 18 19 19 18 21 22 22 23 26 28 28 25 23 22 21 19 17 16 17 17 17 20 22 24 25 26 27 28 30 31 31 32 32 31 30 30 30 30
19 18 17 16 19 22 24 25 25 27 29 30 30 29 28 27 27 27 27 27 26 24 22 19 15 15 16 17 20 21 20 21 24 27 28 27 25 23 22 21 19 17 16 17 18 19 21 22 23 23 24 26 27 28 29 31 31 30 29 29 29 29 29
25 26 27 27 29 31 31 29 28 29 31 30 29 28 27 26 26 26 26 26 25 23 21 17 13 13 14 17 20 20 19 22 26 27 28 28 25 21 20 19 18 17 17 17 19 20 21 20 21 22 23 25 26 28 29 30 30 29 28 28 28 28 28
33 36 35 32 29 29 29 29 29 29 29 29 28 28 27 27 27 26 25 24 23 21 19 15 13 14 16 18 21 21 21 26 28 29 29 26 21 18 16 15 16 17 18 18 19 18 18 19 19 21 23 25 26 27 28 28 27 27 27 28 28 28 28
25 27 28 27 27 27 28 28 27 27 27 27 27 28 28 27 26 24 23 22 21 19 18 15 15 16 17 18 20 23 26 29 29 28 26 21 18 16 15 15 16 17 18 18 18 18 18 18 19 21 23 24 26 26 27 27 27 27 28 28 28 28 27
25 27 27 27 28 28 28 27 27 27 28 28 29 29 28 26 23 20 19 19 19 18 17 15 15 17 18 19 21 25 28 28 26 25 23 21 21 18 16 15 17 18 18 18 18 18 18 19 19 20 22 24 26 27 27 28 28 28 28 28 28 27 26
29 30 29 28 27 28 28 28 29 30 31 31 31 29 26 23 19 17 18 18 17 16 14 13 15 18 20 20 23 26 27 26 25 26 27 25 21 18 16 17 19 20 20 20 19 19 19 19 19 20 22 24 26 28 28 29 29 28 28 27 26 26 25

ECMWFFLT1_700_spd_030.txt.gz
Wind_Speed
14 13 14 16 20 25 28 28 27 26 26 26 26 25 25 26 26 26 25 24 24 24 25 25 24 24 24 23 23 23 22 22 21 20 20 19 19 19 18 17 16 14 13 12 11 11 11 11 11 12 12 13 13 14 14 15 16 15 14 13 12 11 10
16 14 15 15 16 21 25 27 28 28 28 27 26 26 27 27 26 24 23 22 23 23 24 24 24 23 23 23 24 24 23 22 21 21 21 21 20 20 19 18 17 16 15 15 14 14 13 13 13 13 13 14 14 15 15 15 16 17 15 14 13 12 11
19 18 18 17 16 17 20 23 25 28 30 29 27 28 28 28 25 22 21 21 21 23 24 24 24 23 23 24 24 24 24 23 23 22 22 22 21 21 20 19 18 18 18 18 17 16 16 15 15 15 15 15 15 15 15 15 16 18 17 14 13 12 11
23 22 20 20 19 17 18 20 21 24 28 29 28 28 28 27 24 22 21 21 22 22 23 22 22 23 24 24 24 25 25 25 24 24 24 24 23 23 23 22 21 21 21 21 20 19 18 18 17 16 15 16 16 16 16 15 16 18 19 16 14 13 12
24 23 22 22 23 22 21 21 22 23 25 28 29 28 27 26 24 23 21 21 21 22 21 21 22 24 24 24 25 25 26 26 25 25 25 26 26 27 26 25 25 25 24 24 23 22 20 19 18 17 17 17 17 16 16 17 17 18 19 17 15 14 13
24 25 23 23 24 24 24 24 23 24 24 26 28 28 28 27 26 25 23 21 20 20 21 23 23 24 24 24 25 25 26 26 26 26 27 28 29 29 29 29 28 28 28 27 27 25 23 21 19 18 17 17 16 17 17 18 18 19 18 17 15 15 14
23 26 25 24 24 23 24 25 26 26 24 24 26 27 27 28 28 27 25 23 22 21 21 22 23 23 24 24 24 25 25 25 26 28 29 31 31 31 31 32 31 31 31 30 30 28 27 26 22 21 20 20 19 19 18 18 19 19 17 16 16 16 15
21 25 25 25 25 22 22 25 27 28 26 26 26 27 28 30 29 28 27 25 24 23 22 22 21 22 23 23 24 25 24 24 26 29 31 32 32 32 33 34 34 34 34 33 32 31 30 29 27 27 28 27 26 25 23 21 22 19 16 16 17 18 18
18 20 21 21 22 20 20 24 27 29 29 28 27 27 28 30 30 29 27 25 25 24 23 22 21 21 22 23 24 23 23 24 26 28 30 32 32 32 33 35 36 37 36 36 36 35 35 35 34 34 34 34 34 33 31 29 26 22 18 17 18 19 20
18 18 19 20 20 18 20 24 27 30 30 29 30 29 28 29 29 29 28 26 26 25 23 22 22 23 24 24 24 23 23 25 26 27 29 30 31 31 33 36 38 38 38 39 39 38 39 41 41 38 37 38 39 38 37 33 28 25 21 18 18 18 18
20 20 19 19 20 20 21 25 29 31 31 30 31 30 28 28 28 29 28 27 27 26 24 24 24 25 26 25 25 24 25 26 26 27 29 29 30 30 31 36 39 38 38 40 42 43 42 44 46 43 41 39 37 38 38 34 28 25 21 18 19 20 20
23 22 20 18 19 20 22 25 30 32 29 28 31 31 29 28 27 27 27 27 27 26 25 25 26 27 27 26 25 25 26 26 26 27 29 29 30 29 29 34 36 36 37 40 42 45 46 46 47 47 46 42 39 40 39 35 29 25 21 20 20 22 21
26 26 24 21 20 20 22 24 28 30 27 27 30 31 29 27 26 26 26 25 25 25 25 26 27 27 26 25 25 26 26 27 26 27 28 28 30 31 32 35 36 36 39 40 40 42 45 46 47 48 47 45 44 43 40 38 33 26 22 20 20 20 19
24 27 29 26 23 22 23 24 25 27 26 26 29 30 29 27 27 27 26 25 25 25 26 27 27 26 25 24 26 27 27 27 27 28 27 27 29 32 34 36 36 38 42 42 39 39 42 45 48 48 47 47 48 45 41 40 35 27 22 19 18 19 18
24 27 30 30 27 24 23 23 24 27 27 26 27 28 29 29 29 29 28 27 27 27 28 29 28 27 26 26 27 28 28 28 29 29 28 26 28 31 34 35 36 38 43 43 40 40 42 45 48 49 48 47 48 46 43 42 38 30 24 19 17 17 18
27 26 29 31 29 26 24 24 26 28 27 26 27 29 30 30 30 29 28 27 27 28 30 29 28 27 27 28 28 29 29 30 30 30 29 28 29 31 33 34 34 36 40 41 40 41 44 46 47 48 47 46 47 47 44 42 39 32 25 20 18 20 20
29 26 27 30 30 28 26 27 29 29 27 28 29 30 31 31 30 30 29 28 28 28 29 29 28 28 28 28 29 29 30 30 31 31 30 30 31 31 32 33 34 35 38 40 40 40 42 43 44 45 43 42 45 46 43 42 37 30 26 23 22 23 21
30 26 25 27 30 29 28 29 31 29 29 31 31 32 32 32 31 30 29 28 27 28 29 29 28 28 29 29 29 30 30 30 31 32 32 32 32 32 32 33 35 36 38 39 37 36 37 37 38 38 38 38 41 43 42 41 35 29 27 25 24 24 21
31 26 25 26 29 30 29 31 33 32 31 33 33 33 33 32 32 30 29 28 29 29 29 29 28 28 28 28 28 28 28 29 30 31 32 32 33 34 34 34 36 38 38 38 35 33 33 34 33 33 34 36 38 39 40 40 35 27 26 25 24 22 19
32 28 25 25 30 31 30 33 35 33 33 33 34 34 33 33 32 31 31 31 30 30 29 27 26 25 24 24 24 24 25 26 28 30 30 31 33 34 34 35 36 37 38 38 35 33 33 33 32 31 32 34 36 37 37 37 32 26 24 24 23 21 19
32 29 26 25 30 32 31 32 34 36 35 35 36 35 34 34 34 33 33 33 31 30 27 24 23 21 21 21 21 21 22 23 24 25 25 26 28 29 30 33 34 36 38 39 37 33 32 33 33 32 31 32 33 33 31 29 27 25 24 24 22 20 20
34 32 29 27 28 32 34 33 34 37 37 36 36 36 35 35 35 35 34 33 31 28 24 21 21 20 20 20 19 20 20 20 21 22 22 23 24 25 27 30 32 35 37 39 37 33 31 31 32 31 29 28 29 28 25 23 23 24 25 24 22 22 22
36 34 32 29 28 32 35 33 32 36 38 36 36 36 35 36 36 35 34 31 29 26 23 21 21 21 20 19 19 19 20 20 21 22 22 23 24 25 27 29 32 35 37 38 37 33 31 31 30 28 26 24 24 24 22 22 23 25 25 24 23 23 24
38 35 33 31 29 32 35 32 31 37 39 36 36 35 35 35 35 33 30 29 27 25 23 23 22 21 20 19 19 19 19 19 20 20 22 24 25 26 28 30 33 36 36 37 35 31 29 30 28 26 24 21 20 21 22 23 25 26 25 24 25 25 26
38 36 35 33 31 32 35 34 33 38 40 36 35 35 34 34 33 30 29 28 27 25 24 23 22 21 20 19 19 20 20 19 20 21 23 24 26 28 29 31 34 35 35 36 34 29 28 29 28 26 24 21 20 22 23 25 27 27 25 25 26 27 28
37 37 37 35 33 33 34 33 35 40 39 36 35 34 34 34 34 32 31 29 27 26 25 24 23 21 20 20 21 21 21 21 22 23 24 25 27 29 31 33 35 35 34 35 32 29 30 31 29 26 23 22 23 25 26 28 28 25 23 25 27 27 28
37 37 36 35 34 33 32 33 38 41 39 36 36 36 36 36 35 34 31 28 27 27 26 25 23 21 21 22 22 23 23 23 24 25 25 26 27 30 32 33 34 34 33 33 32 31 31 30 29 27 25 25 26 27 27 28 26 24 23 25 27 27 27
37 37 35 32 31 32 33 36 40 41 38 36 36 35 35 34 33 31 29 28 28 28 27 25 22 22 22 22 22 23 23 24 24 25 27 27 28 30 32 33 33 32 31 32 33 32 30 30 30 29 27 27 28 28 27 26 26 25 24 25 26 26 27
34 33 31 29 31 34 36 39 41 40 37 36 35 34 33 32 30 30 30 30 30 29 27 24 23 22 21 21 22 23 24 25 26 27 28 29 29 30 32 33 32 30 29 30 32 31 29 30 32 31 29 29 29 27 26 26 26 26 25 25 26 26 27
30 30 30 33 36 38 38 38 37 36 34 33 33 32 31 30 31 32 33 32 31 29 26 24 22 21 21 22 24 25 27 28 28 29 29 29 30 31 32 32 30 28 28 28 29 29 29 32 34 33 30 29 27 26 27 27 27 27 26 25 26 27 28
28 30 33 36 36 35 32 30 29 29 29 29 29 29 30 31 33 34 33 33 32 29 26 24 23 23 25 27 28 29 29 29 29 29 29 29 30 31 32 31 28 26 27 27 29 30 31 34 35 33 31 29 27 28 29 29 29 28 25 24 27 28 27
29 30 31 32 31 30 28 27 26 27 28 28 28 28 30 31 32 32 32 31 30 28 27 27 28 30 32 32 31 30 30 29 29 30 30 29 29 31 32 29 26 26 27 28 30 31 33 35 36 33 31 29 28 29 29 30 29 27 25 25 26 26 25
31 31 30 29 28 28 27 27 27 28 29 28 28 29 29 29 29 29 28 27 27 27 28 30 31 32 33 33 32 31 29 29 29 30 30 29 29 30 31 28 26 27 28 29 31 33 35 36 35 32 29 28 28 29 30 29 27 26 25 24 22 21 22
33 32 32 31 30 28 27 27 29 29 29 29 29 28 27 25 25 25 26 26 26 27 28 30 31 33 33 33 32 30 29 30 30 30 29 28 29 31 31 28 27 27 28 30 32 33 35 34 32 30 28 28 28 29 28 26 25 24 22 19 19 20 21
34 34 33 32 30 28 27 28 28 28 29 30 30 27 24 23 23 24 25 26 26 27 28 29 31 32 32 32 30 30 30 30 29 28 27 28 30 32 31 29 27 27 29 31 32 33 33 33 31 29 28 28 28 27 25 24 25 22 18 17 19 20 20
30 29 28 26 25 24 23 23 22 22 24 25 25 24 23 23 23 23 23 24 25 26 28 29 30 31 31 30 29 29 29 28 27 26 26 28 30 31 31 28 28 30 33 33 33 34 34 34 32 30 29 28 28 26 25 23 21 18 15 17 19 19 20
24 23 21 21 20 20 19 19 19 20 20 21 22 22 22 21 21 21 22 23 24 26 28 29 29 30 30 29 29 28 26 25 25 25 25 27 28 29 29 29 30 33 35 34 33 34 34 33 31 30 29 28 27 26 24 21 18 16 16 18 18 19 20
18 18 17 17 17 17 18 18 18 19 19 20 21 21 21 22 22 23 24 25 26 27 28 28 28 28 28 28 26 25 23 24 24 25 25 26 25 26 30 32 33 35 36 37 37 36 35 32 30 29 28 27 25 24 22 19 18 18 18 18 18 19 21

ECMWFFLT1_700_spd_033.txt.gz
Wind_Speed
22 19 18 24 22 17 18 18 18 21 22 22 22 22 22 22 23 25 24 25 25 26 26 26 26 26 25 25 25 24 24 24 24 23 23 23 24 25 25 24 24 23 22 20 19 18 16 15 14 14 12 12 13 13 13 13 12 12 12 13 14 14 14
23 22 17 20 20 18 19 19 18 18 20 21 21 22 23 22 22 22 21 21 23 24 25 25 25 25 25 26 25 25 24 24 24 24 23 24 25 25 25 25 25 24 24 23 22 20 19 18 17 16 15 15 15 15 16 15 14 14 14 14 15 15 14
21 21 19 21 20 18 19 21 20 18 19 20 21 22 22 22 22 21 19 19 21 23 24 24 25 25 26 26 26 26 25 25 25 25 24 24 25 26 26 26 26 25 26 25 24 22 21 20 19 18 18 18 18 18 17 16 16 16 16 16 16 16 15
21 20 19 19 19 19 20 21 21 20 19 19 19 21 22 21 21 20 20 20 21 22 23 22 23 24 26 26 26 26 26 26 26 26 26 26 26 27 27 27 26 27 27 26 25 24 23 22 21 21 21 21 21 20 18 16 17 18 18 16 16 16 17
21 20 22 21 18 20 22 23 23 22 20 19 19 20 22 22 21 21 21 21 22 22 22 22 23 25 26 26 26 26 26 27 28 27 27 27 28 28 28 28 27 28 28 28 26 26 26 25 24 25 24 25 24 22 21 21 22 22 20 18 19 20 22
20 17 19 20 19 22 24 25 26 25 22 21 20 20 21 22 22 23 23 23 23 23 23 24 24 25 26 26 26 26 27 28 29 28 28 29 29 29 29 29 29 29 30 29 29 29 28 28 28 28 28 28 28 28 28 29 28 26 25 26 28 29 29
23 19 17 15 14 18 23 24 25 25 23 22 22 21 22 23 24 25 25 24 24 24 24 25 25 25 26 25 25 26 27 29 29 29 29 29 30 30 30 30 30 31 32 32 31 31 31 31 32 32 32 33 33 31 31 31 29 27 29 30 32 32 30
22 22 21 16 12 14 18 21 23 24 25 25 24 24 24 24 25 27 27 25 25 25 25 24 25 25 25 25 25 26 27 28 28 29 29 30 30 31 31 31 32 32 33 34 33 32 33 34 35 35 35 36 35 33 33 33 31 30 31 31 30 30 30
18 22 24 18 16 16 16 18 22 24 26 27 27 26 25 24 25 28 28 26 26 27 25 25 25 24 24 24 24 25 25 27 28 29 29 30 30 30 31 32 33 33 34 35 35 34 35 36 37 38 38 38 38 37 36 36 35 33 33 32 30 29 29
17 23 26 19 18 17 14 15 21 25 27 29 30 29 27 26 27 28 29 28 27 27 25 25 25 24 24 24 23 24 25 26 28 28 29 29 29 29 30 31 33 33 34 35 36 36 37 38 39 40 40 40 40 40 39 38 37 36 34 35 35 30 27
18 23 25 20 20 18 14 14 17 23 27 30 32 31 29 27 27 28 29 28 27 27 26 26 26 26 25 24 23 24 25 26 27 27 27 27 27 27 27 30 32 31 32 34 36 37 37 38 40 40 41 42 42 41 41 41 41 40 37 37 38 32 28
18 23 24 22 22 20 18 16 16 20 26 29 32 32 31 29 28 28 28 28 28 28 27 27 27 27 26 25 25 25 25 26 26 26 25 25 25 25 26 29 30 31 31 33 35 37 37 38 39 39 41 43 43 42 42 43 43 43 41 38 35 32 31
22 25 25 23 21 20 21 20 18 18 24 29 31 33 32 30 28 28 28 28 29 28 28 28 28 28 27 26 27 27 27 27 27 26 26 25 25 26 27 28 29 31 33 34 36 37 38 38 38 39 41 44 44 43 43 44 44 45 45 41 35 31 32
26 27 26 24 22 20 21 22 22 19 21 27 32 34 33 31 29 29 29 28 28 28 28 28 29 29 27 26 27 28 28 28 27 27 27 26 26 27 28 28 29 31 34 36 37 37 38 39 39 39 41 44 45 44 43 44 45 46 47 43 37 32 31
26 27 26 25 22 19 19 21 23 22 21 25 31 35 34 32 31 30 29 28 28 29 28 28 29 29 27 26 27 28 27 27 27 26 27 27 27 28 29 29 30 32 34 37 37 36 37 39 41 40 41 44 45 42 42 44 47 47 46 43 38 33 30
25 25 26 28 29 23 19 19 22 24 24 24 28 34 36 33 31 30 29 28 28 29 29 28 28 27 26 25 25 26 26 26 26 26 27 29 29 30 31 31 31 33 35 37 38 38 37 39 41 41 40 43 46 42 40 42 43 44 44 42 38 33 30
25 24 24 28 31 28 22 20 20 23 27 26 26 32 35 33 30 30 30 29 28 29 29 27 25 25 24 24 25 26 26 26 27 28 30 31 31 31 32 32 32 33 36 38 38 39 39 40 42 42 39 43 47 44 41 40 38 39 41 41 38 33 30
26 26 25 26 29 28 25 24 21 22 27 29 28 31 34 32 31 31 31 30 29 29 28 26 25 24 25 26 27 28 28 28 29 30 30 30 31 31 32 32 32 34 36 37 37 39 40 40 43 42 39 42 45 43 40 37 35 36 39 39 36 33 30
29 28 26 27 32 30 26 26 25 24 28 30 29 31 34 33 33 33 32 32 30 29 29 28 27 27 28 28 29 30 30 30 29 29 28 29 29 30 30 31 32 33 34 35 36 39 40 40 42 42 41 40 39 37 37 36 35 37 39 37 34 33 30
38 36 31 30 34 33 31 34 32 27 29 31 30 33 37 36 35 34 33 33 32 31 31 30 30 30 30 30 30 30 30 29 27 27 27 27 28 29 29 31 32 33 34 35 37 39 39 39 41 41 40 38 35 32 33 35 36 38 39 36 34 33 27
44 43 37 35 37 36 34 37 33 29 30 32 32 37 39 37 36 36 35 35 34 34 33 33 33 33 31 31 30 29 28 27 26 27 27 28 28 28 29 30 31 31 32 34 35 37 37 38 39 39 39 38 34 31 33 36 37 38 37 34 32 29 23
43 43 40 41 47 45 41 38 33 29 29 30 33 39 41 39 38 38 38 37 36 36 36 35 35 33 31 30 29 28 27 27 26 27 28 27 27 26 26 26 27 27 28 30 33 35 37 37 38 38 38 36 33 31 33 36 37 36 34 30 26 25 23
37 37 38 43 48 45 41 38 34 30 28 29 34 41 43 42 42 41 39 38 38 37 37 36 35 34 32 30 29 28 27 27 26 26 26 25 23 22 21 22 24 24 27 30 33 36 37 38 37 37 36 35 31 29 31 33 33 32 28 24 23 24 24
35 33 38 47 48 42 39 37 34 31 29 29 34 42 45 43 42 41 40 39 39 39 38 37 35 34 32 31 29 28 27 26 25 24 23 22 20 19 19 20 22 24 27 31 34 36 37 37 36 35 34 32 29 28 30 32 31 28 25 23 23 25 26
39 39 43 48 46 40 38 38 34 31 30 29 33 40 44 44 42 41 40 39 39 38 37 36 35 34 32 31 29 28 27 25 24 23 22 20 18 18 18 20 23 25 27 31 34 36 36 35 34 33 31 30 28 29 31 32 30 27 25 24 25 26 26
37 41 45 46 41 36 36 37 35 32 30 29 31 38 43 44 43 40 39 38 37 37 36 35 35 34 32 31 29 28 27 25 24 22 21 20 19 19 20 22 24 27 28 30 33 35 34 34 33 30 29 29 29 30 31 31 30 27 25 26 27 26 26
35 38 42 43 40 37 36 37 36 34 30 28 31 38 43 44 42 40 38 37 37 36 35 35 34 33 32 30 29 28 27 26 25 23 22 21 20 21 22 24 27 29 30 30 32 33 33 33 32 30 30 31 31 32 32 31 30 28 25 26 27 26 27
36 38 41 42 41 39 38 39 38 36 31 28 31 38 43 43 42 40 38 38 37 37 36 34 32 31 29 28 27 27 27 26 24 23 22 21 21 23 25 28 30 31 31 31 32 33 33 32 32 31 32 33 32 31 29 29 30 28 25 25 27 28 28
36 35 38 41 41 41 41 41 39 36 31 29 33 40 44 43 42 40 40 39 38 37 34 31 29 27 26 26 27 28 27 25 23 22 22 23 24 26 28 29 30 31 31 31 31 32 32 31 30 30 30 31 31 29 27 27 27 26 24 26 27 28 27
40 36 35 37 38 39 42 42 39 35 32 31 35 42 44 44 43 42 41 39 37 35 32 29 27 24 25 27 27 26 24 23 22 22 23 25 26 27 27 28 29 31 32 31 31 32 31 29 28 27 28 30 30 28 25 25 25 26 26 27 27 27 27
41 38 34 34 36 39 41 40 38 35 33 34 39 44 45 43 41 41 39 37 35 33 30 28 27 27 28 28 25 23 23 23 24 24 24 25 26 27 27 28 30 32 32 32 31 31 30 28 27 26 26 26 26 25 24 25 26 27 27 27 27 27 27
37 36 33 33 36 37 36 35 34 34 35 39 43 45 43 40 37 37 36 35 32 29 26 26 27 30 30 27 23 23 24 24 25 25 25 26 26 27 28 29 32 33 32 31 31 30 28 27 25 24 23 23 23 24 26 28 28 27 27 28 28 28 27
29 31 31 30 30 29 29 30 32 34 38 42 43 41 39 38 36 34 32 30 27 24 25 27 29 29 27 25 23 24 24 25 25 25 26 27 27 28 29 31 32 32 31 31 30 28 27 26 24 23 24 25 25 26 27 28 27 27 29 29 28 27 26
23 27 30 30 30 31 32 34 36 37 39 40 40 38 36 34 31 28 26 25 25 26 26 27 27 27 27 25 24 24 24 25 26 26 28 30 29 29 30 32 31 31 30 29 27 25 25 24 22 23 25 25 26 27 28 28 27 27 29 28 27 27 27
25 29 32 33 33 33 34 34 35 35 35 35 35 33 31 29 26 25 25 25 25 26 27 28 30 31 30 27 26 25 25 26 27 29 30 31 30 29 31 32 30 29 28 26 25 24 24 23 22 23 23 24 26 27 28 29 28 26 26 25 25 27 28
30 32 33 33 32 32 32 32 31 31 31 30 30 29 28 26 25 25 25 25 26 27 29 30 30 31 30 28 27 27 27 27 28 29 30 31 30 30 30 31 29 27 26 25 24 24 24 24 24 24 24 24 25 27 29 28 26 25 25 24 24 25 26
30 30 30 30 29 28 28 26 25 25 25 25 25 24 23 21 20 20 19 20 22 23 24 24 24 24 26 27 27 27 28 28 28 28 28 29 29 30 30 29 27 26 24 23 24 25 25 25 27 28 27 25 25 28 29 27 27 28 26 22 20 22 23
25 25 24 23 21 20 21 20 19 18 18 18 18 17 17 17 17 16 16 16 18 19 20 21 22 22 25 27 26 25 25 26 27 27 27 28 29 29 28 27 26 24 23 23 24 25 26 27 29 30 30 29 29 30 29 27 28 29 25 20 18 18 18

ECMWFFLT1_700_spd_036.txt.gz
Wind_Speed
30 27 25 25 23 22 22 21 17 16 17 19 21 20 20 23 23 23 23 24 25 27 28 28 27 26 25 24 23 23 23 23 23 22 21 21 20 19 19 18 19 19 19 19 18 19 19 19 18 16 16 16 16 15 14 14 14 14 14 17 20 23 25
28 26 24 23 21 20 21 20 17 16 16 17 20 21 21 23 22 21 20 21 22 25 27 26 25 24 24 23 22 23 23 23 23 23 22 21 20 20 19 19 20 20 19 19 20 21 21 21 20 19 18 19 19 17 16 16 15 15 15 18 21 23 24
28 25 23 21 20 19 20 22 19 17 17 17 19 21 21 22 20 18 18 17 18 22 25 25 24 23 23 23 23 23 23 24 24 23 23 21 20 21 21 20 20 20 20 21 21 22 23 23 22 21 21 21 21 19 18 17 16 16 18 19 22 22 21
30 25 20 15 16 17 19 24 22 19 19 18 18 20 20 20 18 17 16 16 16 19 21 22 21 22 22 23 23 23 24 24 24 24 23 22 21 22 23 22 21 21 21 22 22 23 24 23 22 22 22 22 23 22 21 19 18 20 22 22 23 23 21
31 26 19 13 14 17 21 25 25 21 20 19 18 18 20 20 19 17 17 16 17 18 19 19 19 21 22 23 23 24 24 24 24 24 23 23 23 23 24 23 22 22 22 23 24 24 24 24 23 23 23 24 24 24 23 21 21 25 27 27 25 23 22
32 27 23 18 19 21 25 28 28 25 22 21 19 18 20 21 20 19 18 18 18 19 20 21 21 22 22 23 24 24 24 25 25 24 23 24 24 24 24 24 24 23 23 24 25 25 25 24 23 24 25 26 26 26 25 24 24 27 29 29 26 23 23
34 32 26 23 23 24 26 27 28 28 26 25 24 21 21 22 22 21 20 20 20 20 23 23 23 23 23 23 23 24 24 24 25 24 24 24 25 25 25 25 25 25 25 26 26 27 27 26 25 25 26 27 28 28 28 27 29 30 30 30 29 27 26
37 37 30 26 20 18 21 25 29 31 31 29 27 24 22 22 23 22 22 22 21 22 24 25 24 24 23 23 23 24 24 24 24 24 24 25 26 26 26 27 26 25 26 27 27 28 29 28 27 27 28 29 30 31 31 31 32 33 32 31 31 31 31
32 32 29 25 22 18 16 21 27 30 32 30 28 25 23 24 23 22 22 23 23 24 24 25 25 24 24 24 24 24 24 24 24 25 25 26 26 26 27 27 27 26 27 29 29 29 29 29 29 30 30 31 32 33 34 34 35 35 34 32 31 32 34
32 33 28 24 25 21 15 14 19 26 29 28 28 28 26 25 25 24 24 24 24 24 24 25 25 24 24 24 24 24 25 24 24 25 26 26 26 26 27 27 26 27 28 29 30 30 30 30 30 31 31 32 33 34 35 36 37 37 35 34 33 34 35
31 30 25 21 21 21 16 12 11 18 25 27 29 31 30 29 29 27 26 25 24 24 24 25 25 25 24 23 24 25 25 24 25 25 26 26 26 26 26 26 26 26 28 29 31 31 31 31 32 31 31 32 33 34 34 36 39 39 37 38 37 37 35
23 24 23 21 21 20 17 13 9 11 18 24 29 32 33 32 32 30 28 26 25 25 25 25 26 25 23 23 24 24 24 24 24 24 25 25 25 25 25 25 25 25 26 27 29 30 31 31 32 32 31 32 33 34 33 35 39 40 40 40 40 38 36
18 22 23 21 21 21 20 16 12 11 13 17 23 29 33 34 33 32 31 29 28 27 26 26 26 25 23 23 23 24 23 23 23 23 23 23 23 23 23 23 24 25 25 25 26 29 29 30 32 33 32 32 34 34 33 35 38 40 41 41 40 40 39
19 21 19 17 17 20 20 18 15 14 12 13 17 22 28 32 33 32 33 32 31 30 28 27 27 25 23 22 23 23 23 22 22 23 22 21 21 21 22 22 23 25 27 27 26 27 28 30 32 33 33 33 34 33 34 36 37 38 41 41 39 40 40
24 25 26 25 22 21 21 20 17 12 10 11 14 18 22 26 31 33 34 33 33 31 29 28 27 26 24 23 23 23 23 23 23 23 22 22 22 21 22 23 24 27 29 29 28 27 28 31 32 33 35 36 34 33 33 36 37 38 40 39 37 37 37
26 28 30 31 29 25 23 23 20 15 11 9 11 16 19 21 24 29 33 34 34 32 30 27 27 28 26 23 23 24 24 24 23 23 23 22 21 21 22 24 25 27 29 29 29 29 30 33 34 33 34 36 36 34 34 36 37 38 38 36 35 35 35
30 30 30 31 32 29 25 23 24 22 18 12 9 12 17 19 21 25 31 35 34 33 30 27 26 28 27 24 24 24 25 24 23 23 23 22 21 21 22 24 26 28 29 30 31 31 32 34 34 34 34 35 36 36 35 36 36 36 36 36 35 35 34
31 32 32 31 31 31 29 26 25 25 23 19 13 10 13 18 21 23 28 33 35 33 31 28 26 28 27 24 24 24 25 25 24 24 23 22 22 23 23 25 27 29 30 31 32 32 33 34 34 35 35 36 37 37 35 35 35 33 34 36 36 35 34
32 32 30 27 27 29 30 29 27 26 24 22 17 12 11 15 21 23 25 31 35 34 32 29 27 27 27 26 25 25 25 26 25 25 24 24 24 25 26 27 29 30 30 31 32 32 31 31 32 34 36 37 39 38 35 36 35 31 32 34 35 34 34
30 32 30 26 23 22 24 27 29 28 26 22 18 16 15 15 19 23 25 30 36 36 33 31 29 28 28 28 27 27 27 27 26 26 25 26 27 27 27 28 29 30 30 30 31 30 29 29 30 33 35 37 39 39 38 37 35 30 29 30 32 33 33
29 30 31 29 26 24 25 27 29 29 28 25 21 19 18 17 19 22 26 29 35 38 35 32 31 30 29 30 30 29 28 27 27 27 27 28 28 27 27 28 28 29 29 29 29 28 28 29 29 29 31 34 37 39 39 37 33 29 27 28 30 32 32
34 31 31 30 29 29 30 32 34 34 32 30 27 24 21 19 19 24 28 30 33 38 37 35 34 33 32 32 31 30 29 28 28 28 29 29 27 26 27 28 28 28 28 28 29 28 26 26 27 27 29 33 36 39 39 35 31 27 24 26 30 32 32
39 36 35 36 37 36 36 38 40 42 42 41 36 30 25 21 20 25 29 31 34 38 39 37 36 35 33 32 31 29 29 30 30 31 31 29 27 27 28 28 28 28 28 29 28 25 23 23 26 28 29 32 36 38 38 34 29 24 22 26 30 31 31
43 41 40 41 41 41 43 44 43 44 48 49 44 38 33 27 23 26 30 31 35 39 41 39 38 36 34 32 31 31 32 33 33 33 31 29 28 28 28 27 27 28 28 27 24 21 21 23 26 28 30 32 35 37 37 34 28 22 22 27 30 30 30
39 39 39 39 38 38 41 46 48 47 47 47 45 42 39 32 25 27 30 33 37 41 42 41 39 38 36 34 35 35 35 35 34 32 31 30 28 27 26 26 27 28 25 23 21 21 23 25 27 30 32 34 35 36 36 33 27 22 23 27 29 29 31
31 32 34 35 36 36 35 37 43 46 46 44 42 41 39 34 28 28 31 34 39 42 43 42 42 40 39 38 38 38 37 35 33 32 30 28 25 25 26 27 27 26 23 21 22 24 25 26 28 31 32 34 35 35 34 31 26 21 23 26 29 30 32
33 31 31 31 34 38 40 38 38 41 42 42 40 40 39 36 31 30 30 35 41 44 44 44 43 42 40 39 39 38 35 34 33 31 28 25 23 25 27 26 25 23 21 22 25 26 27 27 29 30 31 33 34 33 32 30 24 22 25 29 31 33 34
37 37 32 32 35 39 42 44 44 43 43 43 42 41 40 37 34 30 30 35 42 45 46 45 44 42 41 40 38 36 35 34 33 30 27 25 27 29 28 26 25 23 22 24 25 26 26 28 30 30 31 32 33 32 31 29 25 24 27 31 32 33 33
33 35 30 31 37 41 42 44 43 43 43 43 41 39 39 37 33 30 31 37 44 47 48 47 45 43 41 39 38 37 36 34 30 26 25 26 29 30 28 25 24 23 23 25 26 26 26 29 30 30 30 31 32 32 31 29 26 24 26 29 30 31 31
32 34 33 31 33 37 41 41 39 39 40 40 40 39 39 37 33 31 34 40 45 48 49 48 45 42 40 39 38 37 35 32 27 24 25 25 26 26 24 23 24 24 25 26 27 27 27 29 30 30 30 30 31 31 31 30 26 23 23 25 26 27 29
35 35 40 41 36 36 38 37 35 35 37 38 39 39 38 36 34 33 36 41 46 49 49 46 43 41 40 39 38 36 33 29 26 24 24 25 25 25 24 24 25 26 27 28 28 28 29 31 31 30 29 29 30 30 30 29 24 21 21 22 22 24 27
37 33 39 44 43 43 42 38 34 33 33 35 37 36 36 36 35 35 39 44 47 47 45 42 41 40 40 39 37 34 30 27 25 24 23 23 23 23 23 25 27 27 28 29 29 31 31 31 30 29 28 28 28 27 27 25 21 20 21 21 20 23 26
43 39 37 35 35 36 37 37 37 35 32 33 34 33 34 35 37 40 43 45 45 42 40 39 40 39 38 35 32 29 26 24 23 23 23 24 26 28 30 31 30 29 29 29 31 31 31 29 28 26 26 26 24 22 22 22 20 19 20 20 21 23 26
42 43 42 36 30 29 29 29 30 29 28 29 30 31 32 33 35 38 40 41 40 40 40 40 39 36 33 31 28 25 24 23 24 25 28 31 34 36 37 35 32 30 30 31 31 30 28 27 26 24 23 22 20 20 21 20 19 19 19 21 23 24 24
37 39 38 30 22 23 23 23 25 27 28 30 30 30 30 31 33 36 38 40 41 41 40 38 35 32 30 27 25 23 23 24 27 29 30 30 29 30 32 31 30 30 30 30 30 28 26 24 21 19 19 19 20 20 19 18 18 19 20 22 24 24 23
31 31 28 24 22 22 21 20 20 21 23 25 27 28 32 35 38 39 39 39 38 37 34 33 31 29 27 25 24 23 23 25 27 28 27 25 25 27 28 28 28 29 29 28 27 26 24 21 18 16 17 18 20 20 20 20 20 21 23 24 24 22 21
20 22 20 18 19 18 16 16 17 19 23 28 30 33 36 37 37 37 36 35 34 32 30 29 28 26 24 23 23 23 23 24 25 24 24 24 25 26 26 26 27 27 27 26 24 22 20 19 18 18 18 19 21 23 25 24 21 21 25 25 23 21 20
17 19 20 21 22 23 24 25 26 28 31 32 32 32 33 33 33 32 31 29 28 26 25 23 21 21 21 22 21 20 20 21 22 23 23 24 24 24 25 25 26 25 24 23 22 19 17 17 17 18 18 18 20 22 24 23 22 23 25 24 22 21 21